sat.trackr.live / text

‹ back to catalog

STARLINK-3120

NORAD 49419 · 2021-104M

PAYLOAD ACTIVE UNKNOWN

§ Identity

Operator
Country
US
Launch date
2021-11-13
Launch site
AFETR
Launch vehicle
Mass (kg)
RCS (m²)

Purposes: comms

External: N2YO · Heavens-Above · Gunter

§ Orbital elements

Epoch: 2026-09-08T19:00:49.244832Z

Period
93.79 min
Inclination
53.1595°
Eccentricity
0.0001409
Mean motion
15.35419747 rev/d
Perigee alt
458.7 km
Apogee alt
460.6 km
Semi-major
6,837.8 km
B*
-1.5669e-4
RAAN
116.8513°
Arg perigee
116.1621°
Mean anomaly
243.9527°
Rev number
26,640

§ Raw data

STARLINK-31201 49419U 21104M   26251.79223663 -.00005846  00000+0 -15669-3 0  99932 49419  53.1595 116.8513 0001409 116.1621 243.9527 15.35419747266400

JSON: /api/v1/satellites/49419 · /tle

For live sub-satellite position, see the globe view (requires WebGL).

§ Visibility from observer

Set your observer location to see the next 7 days of passes ≥ 10°. The values pass through the URL so the page stays shareable.

No JS? Fill the form by hand. The geolocation button needs JavaScript.